Time,TemperatureF,DewpointF,PressureIn,WindDirection,WindDirectionDegrees,WindSpeedMPH,WindSpeedGustMPH,Humidity,HourlyPrecipIn,Conditions,Clouds,dailyrainin,SoftwareType,DateUTC
2013-02-25 00:00:00,44.2,42.6,29.91,East,90,0.0,0.0,94,0.00,OVC,SKC,0.32,WeatherDisplay:10.37,2013-02-24 23:00:00,
2013-02-25 00:05:00,44.4,42.8,29.92,SSE,158,0.3,1.1,94,0.00,OVC,SKC,0.32,WeatherDisplay:10.37,2013-02-24 23:05:00,
2013-02-25 00:11:00,44.4,42.8,29.92,SE,135,1.0,1.0,94,0.00,OVC,SKC,0.32,WeatherDisplay:10.37,2013-02-24 23:11:00,
2013-02-25 00:17:00,44.4,42.8,29.92,SE,135,0.0,0.0,94,0.00,BKN,SKC,0.32,WeatherDisplay:10.37,2013-02-24 23:17:00,
2013-02-25 00:24:00,44.4,42.8,29.92,SE,134,0.0,2.0,94,0.00,BKN,SKC,0.32,WeatherDisplay:10.37,2013-02-24 23:24:00,
2013-02-25 00:32:00,44.8,43.2,29.92,ESE,115,1.0,5.0,94,0.00,BKN,SKC,0.32,WeatherDisplay:10.37,2013-02-24 23:32:00,
2013-02-25 00:37:00,44.6,43.0,29.92,SE,142,1.0,2.0,94,0.00,BKN,SKC,0.32,WeatherDisplay:10.37,2013-02-24 23:37:00,
2013-02-25 00:44:00,44.8,42.9,29.92,ESE,109,0.0,0.0,93,0.00,BKN,SKC,0.32,WeatherDisplay:10.37,2013-02-24 23:44:00,
2013-02-25 00:52:00,44.4,42.5,29.92,SSE,158,0.0,0.0,93,0.00,BKN,SKC,0.32,WeatherDisplay:10.37,2013-02-24 23:52:00,
2013-02-25 01:01:00,44.4,42.5,29.93,SE,138,0.0,0.0,93,0.00,BKN,SKC,0.32,WeatherDisplay:10.37,2013-02-25 00:01:00,
2013-02-25 01:14:00,44.4,42.5,29.93,ESE,114,0.0,0.0,93,0.00,BKN,SKC,0.32,WeatherDisplay:10.37,2013-02-25 00:14:00,
2013-02-25 01:19:00,44.4,42.5,29.93,ESE,114,0.0,0.0,93,0.00,BKN,SKC,0.32,WeatherDisplay:10.37,2013-02-25 00:19:00,
2013-02-25 01:24:00,44.4,42.5,29.93,ESE,114,0.0,0.0,93,0.00,BKN,SKC,0.32,WeatherDisplay:10.37,2013-02-25 00:24:00,
2013-02-25 01:29:00,44.4,42.5,29.93,ESE,114,0.0,0.0,93,0.00,BKN,SKC,0.32,WeatherDisplay:10.37,2013-02-25 00:29:00,
2013-02-25 01:34:00,44.4,42.5,29.93,ESE,114,0.0,0.0,93,0.00,OVC,SKC,0.32,WeatherDisplay:10.37,2013-02-25 00:34:00,
2013-02-25 01:39:00,44.4,42.5,29.92,ESE,114,0.0,0.0,93,0.00,OVC,SKC,0.32,WeatherDisplay:10.37,2013-02-25 00:39:00,
2013-02-25 01:44:00,44.6,42.4,29.93,ESE,112,2.5,2.5,92,0.00,OVC,SKC,0.32,WeatherDisplay:10.37,2013-02-25 00:44:00,
2013-02-25 01:49:00,44.6,42.4,29.92,SSE,158,2.5,2.5,92,0.00,OVC,SKC,0.32,WeatherDisplay:10.37,2013-02-25 00:49:00,
2013-02-25 01:54:00,44.8,42.6,29.93,SE,135,2.9,3.5,92,0.00,OVC,SKC,0.32,WeatherDisplay:10.37,2013-02-25 00:54:00,
2013-02-25 01:59:00,44.8,42.3,29.93,SSE,158,0.0,0.0,91,0.00,OVC,SKC,0.32,WeatherDisplay:10.37,2013-02-25 00:59:00,
2013-02-25 02:04:00,44.8,42.3,29.93,SSE,158,0.0,0.0,91,0.00,BKN,SKC,0.32,WeatherDisplay:10.37,2013-02-25 01:04:00,
2013-02-25 02:09:00,44.8,42.3,29.93,South,180,3.4,8.1,91,0.00,BKN,SKC,0.32,WeatherDisplay:10.37,2013-02-25 01:09:00,
2013-02-25 02:14:00,44.8,42.3,29.93,East,90,0.3,2.3,91,0.00,BKN,SKC,0.32,WeatherDisplay:10.37,2013-02-25 01:14:00,
2013-02-25 02:19:00,44.8,42.0,29.93,SE,135,1.1,1.1,90,0.00,BKN,SKC,0.32,WeatherDisplay:10.37,2013-02-25 01:19:00,
2013-02-25 02:24:00,44.8,42.0,29.93,SSE,158,0.0,0.0,90,0.00,BKN,SKC,0.32,WeatherDisplay:10.37,2013-02-25 01:24:00,
2013-02-25 02:29:00,44.8,42.0,29.93,South,180,0.7,1.1,90,0.00,BKN,SKC,0.32,WeatherDisplay:10.37,2013-02-25 01:29:00,
2013-02-25 02:34:00,44.6,41.8,29.93,SSE,158,0.0,0.0,90,0.00,BKN,SKC,0.32,WeatherDisplay:10.37,2013-02-25 01:34:00,
2013-02-25 02:39:00,44.6,41.8,29.94,South,180,2.5,2.5,90,0.00,BKN,SKC,0.32,WeatherDisplay:10.37,2013-02-25 01:39:00,
2013-02-25 02:44:00,44.6,41.8,29.94,SSE,158,0.4,5.4,90,0.00,BKN,SKC,0.32,WeatherDisplay:10.37,2013-02-25 01:44:00,
2013-02-25 02:49:00,44.6,41.8,29.94,South,180,0.0,2.0,90,0.00,BKN,SKC,0.32,WeatherDisplay:10.37,2013-02-25 01:49:00,
2013-02-25 02:54:00,44.6,41.6,29.94,SSE,158,1.4,2.3,89,0.00,BKN,SKC,0.32,WeatherDisplay:10.37,2013-02-25 01:54:00,
2013-02-25 02:59:00,44.6,41.6,29.95,SSE,158,0.0,0.0,89,0.00,BKN,SKC,0.32,WeatherDisplay:10.37,2013-02-25 01:59:00,
2013-02-25 03:04:00,44.4,41.4,29.94,East,90,0.9,2.3,89,0.00,BKN,SKC,0.32,WeatherDisplay:10.37,2013-02-25 02:04:00,
2013-02-25 03:09:00,44.4,41.7,29.94,ESE,112,0.0,0.0,90,0.00,BKN,SKC,0.32,WeatherDisplay:10.37,2013-02-25 02:09:00,
2013-02-25 03:14:00,44.4,41.7,29.94,NE,45,2.2,2.3,90,0.00,BKN,SKC,0.32,WeatherDisplay:10.37,2013-02-25 02:14:00,
2013-02-25 03:19:00,44.4,41.4,29.95,ESE,112,1.6,1.6,89,0.00,BKN,SKC,0.32,WeatherDisplay:10.37,2013-02-25 02:19:00,
2013-02-25 03:24:00,44.4,41.4,29.95,SE,135,0.0,0.0,89,0.00,BKN,SKC,0.32,WeatherDisplay:10.37,2013-02-25 02:24:00,
2013-02-25 03:29:00,44.4,41.4,29.94,SE,135,0.0,0.0,89,0.00,BKN,SKC,0.32,WeatherDisplay:10.37,2013-02-25 02:29:00,
2013-02-25 03:34:00,44.4,41.4,29.95,South,180,1.5,2.9,89,0.00,BKN,SKC,0.32,WeatherDisplay:10.37,2013-02-25 02:34:00,
2013-02-25 03:39:00,44.4,41.4,29.95,South,180,2.4,3.5,89,0.00,BKN,SKC,0.32,WeatherDisplay:10.37,2013-02-25 02:39:00,
2013-02-25 03:44:00,44.4,41.4,29.95,ESE,114,0.0,0.0,89,0.00,BKN,SKC,0.32,WeatherDisplay:10.37,2013-02-25 02:44:00,
2013-02-25 03:49:00,44.4,41.4,29.95,South,180,1.4,1.4,89,0.00,BKN,SKC,0.32,WeatherDisplay:10.37,2013-02-25 02:49:00,
2013-02-25 03:54:00,44.4,41.4,29.95,SE,135,0.1,1.1,89,0.00,BKN,SKC,0.32,WeatherDisplay:10.37,2013-02-25 02:54:00,
2013-02-25 03:59:00,44.2,41.2,29.96,SSE,158,0.0,0.0,89,0.00,BKN,SKC,0.32,WeatherDisplay:10.37,2013-02-25 02:59:00,
2013-02-25 04:04:00,44.2,41.2,29.95,SE,135,0.0,0.0,89,0.00,BKN,SKC,0.32,WeatherDisplay:10.37,2013-02-25 03:04:00,
2013-02-25 04:09:00,44.2,41.2,29.96,SE,135,0.0,0.0,89,0.00,BKN,SKC,0.32,WeatherDisplay:10.37,2013-02-25 03:09:00,
2013-02-25 04:14:00,44.2,41.5,29.96,SE,135,2.2,2.3,90,0.00,BKN,SKC,0.32,WeatherDisplay:10.37,2013-02-25 03:14:00,
2013-02-25 04:19:00,44.2,41.2,29.96,ESE,112,1.6,1.6,89,0.00,BKN,SKC,0.32,WeatherDisplay:10.37,2013-02-25 03:19:00,
2013-02-25 04:24:00,44.2,41.2,29.96,East,90,1.1,1.1,89,0.00,BKN,SKC,0.32,WeatherDisplay:10.37,2013-02-25 03:24:00,
2013-02-25 04:29:00,44.4,41.4,29.96,East,90,0.7,1.1,89,0.00,BKN,SKC,0.32,WeatherDisplay:10.37,2013-02-25 03:29:00,
2013-02-25 04:34:00,44.4,41.4,29.96,SSE,158,0.3,1.1,89,0.00,BKN,SKC,0.32,WeatherDisplay:10.37,2013-02-25 03:34:00,
2013-02-25 04:39:00,44.4,41.4,29.96,ESE,112,0.0,0.0,89,0.00,BKN,SKC,0.32,WeatherDisplay:10.37,2013-02-25 03:39:00,
2013-02-25 04:44:00,44.4,41.4,29.96,ESE,112,1.7,3.5,89,0.00,BKN,SKC,0.32,WeatherDisplay:10.37,2013-02-25 03:44:00,
2013-02-25 04:49:00,44.4,41.4,29.97,ESE,112,0.0,0.0,89,0.00,BKN,SKC,0.32,WeatherDisplay:10.37,2013-02-25 03:49:00,
2013-02-25 04:54:00,44.4,41.4,29.97,ESE,112,0.0,0.0,89,0.00,BKN,SKC,0.32,WeatherDisplay:10.37,2013-02-25 03:54:00,
2013-02-25 04:59:00,44.4,41.4,29.97,ESE,112,0.0,0.0,89,0.00,BKN,SKC,0.32,WeatherDisplay:10.37,2013-02-25 03:59:00,
2013-02-25 05:05:00,44.4,41.4,29.97,ESE,114,0.0,0.0,89,0.00,BKN,SKC,0.32,WeatherDisplay:10.37,2013-02-25 04:05:00,
2013-02-25 05:10:00,44.4,41.4,29.97,ESE,114,0.0,0.0,89,0.00,BKN,SKC,0.32,WeatherDisplay:10.37,2013-02-25 04:10:00,
2013-02-25 05:15:00,44.2,40.9,29.98,SSE,158,0.0,0.0,88,0.00,BKN,SKC,0.32,WeatherDisplay:10.37,2013-02-25 04:15:00,
2013-02-25 05:20:00,44.2,40.9,29.98,East,90,0.0,0.0,88,0.00,BKN,SKC,0.32,WeatherDisplay:10.37,2013-02-25 04:20:00,
2013-02-25 05:25:00,44.1,40.7,29.98,SSE,158,0.1,3.5,88,0.00,BKN,SKC,0.32,WeatherDisplay:10.37,2013-02-25 04:25:00,
2013-02-25 05:30:00,44.1,40.7,29.98,ESE,112,0.6,0.0,88,0.00,BKN,SKC,0.32,WeatherDisplay:10.37,2013-02-25 04:30:00,
2013-02-25 05:35:00,43.9,40.6,29.98,ESE,112,0.4,2.3,88,0.00,BKN,SKC,0.32,WeatherDisplay:10.37,2013-02-25 04:35:00,
2013-02-25 05:40:00,44.1,40.7,29.98,SE,135,0.1,0.0,88,0.00,BKN,SKC,0.32,WeatherDisplay:10.37,2013-02-25 04:40:00,
2013-02-25 05:45:00,44.1,40.7,29.98,ESE,122,0.0,3.0,88,0.00,BKN,SKC,0.32,WeatherDisplay:10.37,2013-02-25 04:45:00,
2013-02-25 05:50:00,44.2,40.9,29.99,South,180,0.0,0.0,88,0.00,BKN,SKC,0.32,WeatherDisplay:10.37,2013-02-25 04:50:00,
2013-02-25 05:55:00,44.1,40.7,29.99,South,180,0.9,1.1,88,0.00,BKN,SKC,0.32,WeatherDisplay:10.37,2013-02-25 04:55:00,
2013-02-25 06:00:00,44.1,40.7,29.99,SSE,162,1.0,1.0,88,0.00,BKN,SKC,0.32,WeatherDisplay:10.37,2013-02-25 05:00:00,
2013-02-25 06:01:00,44.1,40.7,29.99,East,90,0.7,1.1,88,0.00,BKN,SKC,0.32,WeatherDisplay:10.37,2013-02-25 05:01:00,
2013-02-25 06:06:00,44.1,40.7,29.99,East,90,0.0,1.1,88,0.00,BKN,SKC,0.32,WeatherDisplay:10.37,2013-02-25 05:06:00,
2013-02-25 06:11:00,44.1,40.7,29.99,SE,135,0.0,0.0,88,0.00,BKN,SKC,0.32,WeatherDisplay:10.37,2013-02-25 05:11:00,
2013-02-25 06:16:00,44.1,40.7,29.99,SSW,202,0.0,1.1,88,0.00,BKN,SKC,0.32,WeatherDisplay:10.37,2013-02-25 05:16:00,
2013-02-25 06:21:00,44.1,40.7,29.99,SSE,158,3.1,3.5,88,0.00,BKN,SKC,0.32,WeatherDisplay:10.37,2013-02-25 05:21:00,
2013-02-25 06:26:00,43.9,40.6,29.99,SSE,158,0.0,0.0,88,0.00,BKN,SKC,0.32,WeatherDisplay:10.37,2013-02-25 05:26:00,
2013-02-25 06:31:00,43.9,40.6,29.99,ESE,112,0.0,0.0,88,0.00,BKN,SKC,0.32,WeatherDisplay:10.37,2013-02-25 05:31:00,
2013-02-25 06:36:00,43.9,40.6,30.00,ESE,112,0.0,0.0,88,0.00,BKN,SKC,0.32,WeatherDisplay:10.37,2013-02-25 05:36:00,
2013-02-25 06:41:00,43.9,40.8,30.00,ESE,112,0.1,0.0,89,0.00,BKN,SKC,0.32,WeatherDisplay:10.37,2013-02-25 05:41:00,
2013-02-25 06:46:00,43.9,40.6,30.00,ESE,112,1.5,1.6,88,0.00,BKN,SKC,0.32,WeatherDisplay:10.37,2013-02-25 05:46:00,
2013-02-25 06:51:00,43.9,40.6,30.00,South,180,0.0,0.0,88,0.00,BKN,SKC,0.32,WeatherDisplay:10.37,2013-02-25 05:51:00,
2013-02-25 06:56:00,43.9,40.6,30.00,ESE,112,0.0,0.0,88,0.00,BKN,SKC,0.32,WeatherDisplay:10.37,2013-02-25 05:56:00,
2013-02-25 07:01:00,43.9,40.6,30.00,East,90,0.0,0.0,88,0.00,RA,SKC,0.00,WeatherDisplay:10.37,2013-02-25 06:01:00,
2013-02-25 07:06:00,44.1,40.7,30.00,SE,135,0.0,0.0,88,0.00,RA,SKC,0.00,WeatherDisplay:10.37,2013-02-25 06:06:00,
2013-02-25 07:11:00,43.9,40.6,30.01,SE,135,0.0,0.0,88,0.00,BKN,SKC,0.00,WeatherDisplay:10.37,2013-02-25 06:11:00,
2013-02-25 07:16:00,43.9,40.6,30.01,SSE,158,0.0,0.0,88,0.00,BKN,SKC,0.00,WeatherDisplay:10.37,2013-02-25 06:16:00,
2013-02-25 07:21:00,43.9,40.6,30.01,SE,135,0.0,0.0,88,0.00,BKN,SKC,0.00,WeatherDisplay:10.37,2013-02-25 06:21:00,
2013-02-25 07:26:00,43.9,40.6,30.02,SSE,158,0.0,0.0,88,0.00,BKN,SKC,0.00,WeatherDisplay:10.37,2013-02-25 06:26:00,
2013-02-25 07:31:00,43.9,40.6,30.02,SE,135,0.0,0.0,88,0.00,BKN,SKC,0.00,WeatherDisplay:10.37,2013-02-25 06:31:00,
2013-02-25 07:36:00,44.1,40.7,30.02,South,180,0.3,2.3,88,0.00,BKN,SKC,0.00,WeatherDisplay:10.37,2013-02-25 06:36:00,
2013-02-25 07:41:00,44.2,41.2,30.02,ESE,112,0.0,0.0,89,0.00,BKN,SKC,0.00,WeatherDisplay:10.37,2013-02-25 06:41:00,
2013-02-25 07:46:00,44.1,41.0,30.02,South,180,0.0,1.1,89,0.00,BKN,SKC,0.00,WeatherDisplay:10.37,2013-02-25 06:46:00,
2013-02-25 07:51:00,44.1,41.0,30.03,East,90,0.0,0.0,89,0.00,BKN,SKC,0.00,WeatherDisplay:10.37,2013-02-25 06:51:00,
2013-02-25 07:56:00,44.2,41.2,30.03,South,180,0.0,0.0,89,0.00,BKN,SKC,0.00,WeatherDisplay:10.37,2013-02-25 06:56:00,
2013-02-25 08:01:00,44.2,41.2,30.03,ESE,112,0.0,0.0,89,0.00,BKN,SKC,0.00,WeatherDisplay:10.37,2013-02-25 07:01:00,
2013-02-25 08:06:00,44.2,41.2,30.03,ESE,112,0.0,0.0,89,0.00,BKN,SKC,0.00,WeatherDisplay:10.37,2013-02-25 07:06:00,
2013-02-25 08:11:00,44.4,41.4,30.03,SE,135,0.0,0.0,89,0.00,BKN,SKC,0.00,WeatherDisplay:10.37,2013-02-25 07:11:00,
2013-02-25 08:16:00,44.4,41.4,30.03,ESE,112,0.0,0.0,89,0.00,BKN,SKC,0.00,WeatherDisplay:10.37,2013-02-25 07:16:00,
2013-02-25 08:21:00,44.4,41.4,30.03,ESE,112,0.0,0.0,89,0.00,BKN,SKC,0.00,WeatherDisplay:10.37,2013-02-25 07:21:00,
2013-02-25 08:26:00,44.4,41.1,30.03,SE,135,0.0,0.0,88,0.00,BKN,SKC,0.00,WeatherDisplay:10.37,2013-02-25 07:26:00,
2013-02-25 08:31:00,44.6,41.3,30.04,ESE,112,1.3,1.3,88,0.00,BKN,SKC,0.00,WeatherDisplay:10.37,2013-02-25 07:31:00,
2013-02-25 08:36:00,44.6,41.3,30.04,SE,135,0.0,0.0,88,0.00,BKN,SKC,0.00,WeatherDisplay:10.37,2013-02-25 07:36:00,
2013-02-25 08:41:00,44.8,41.4,30.04,SSE,158,0.0,0.0,88,0.00,BKN,SKC,0.00,WeatherDisplay:10.37,2013-02-25 07:41:00,
2013-02-25 08:46:00,44.8,41.4,30.04,ESE,112,0.0,2.3,88,0.00,BKN,SKC,0.00,WeatherDisplay:10.37,2013-02-25 07:46:00,
2013-02-25 08:51:00,45.0,41.6,30.04,SE,135,0.0,0.0,88,0.00,BKN,SKC,0.00,WeatherDisplay:10.37,2013-02-25 07:51:00,
2013-02-25 08:56:00,45.0,41.6,30.04,ESE,112,0.0,0.0,88,0.00,BKN,SKC,0.00,WeatherDisplay:10.37,2013-02-25 07:56:00,
2013-02-25 09:01:00,45.0,41.6,30.04,East,90,0.0,0.0,88,0.00,BKN,SKC,0.00,WeatherDisplay:10.37,2013-02-25 08:01:00,
2013-02-25 09:06:00,45.0,41.6,30.04,ESE,112,0.0,0.0,88,0.00,BKN,SKC,0.00,WeatherDisplay:10.37,2013-02-25 08:06:00,
2013-02-25 09:11:00,45.1,41.8,30.04,SE,135,0.0,0.0,88,0.00,BKN,SKC,0.00,WeatherDisplay:10.37,2013-02-25 08:11:00,
2013-02-25 09:16:00,45.1,41.8,30.05,SE,135,0.0,0.0,88,0.00,BKN,SKC,0.00,WeatherDisplay:10.37,2013-02-25 08:16:00,
2013-02-25 09:21:00,45.1,41.8,30.05,ENE,68,0.9,1.1,88,0.00,BKN,SKC,0.00,WeatherDisplay:10.37,2013-02-25 08:21:00,
2013-02-25 09:26:00,45.1,41.8,30.05,East,90,0.0,0.0,88,0.00,BKN,SKC,0.00,WeatherDisplay:10.37,2013-02-25 08:26:00,
2013-02-25 09:31:00,45.1,41.8,30.06,ESE,112,0.0,0.0,88,0.00,BKN,SKC,0.00,WeatherDisplay:10.37,2013-02-25 08:31:00,
2013-02-25 09:36:00,45.1,41.5,30.06,SE,135,0.8,0.0,87,0.00,BKN,SKC,0.00,WeatherDisplay:10.37,2013-02-25 08:36:00,
2013-02-25 09:41:00,45.3,41.7,30.06,ESE,109,1.0,3.0,87,0.00,BKN,SKC,0.00,WeatherDisplay:10.37,2013-02-25 08:41:00,
2013-02-25 09:46:00,45.3,41.7,30.06,South,180,0.0,0.9,87,0.00,BKN,SKC,0.00,WeatherDisplay:10.37,2013-02-25 08:46:00,
2013-02-25 09:51:00,45.3,41.7,30.06,ESE,112,0.0,2.3,87,0.00,BKN,SKC,0.00,WeatherDisplay:10.37,2013-02-25 08:51:00,
2013-02-25 09:56:00,45.3,41.7,30.06,ESE,108,0.0,0.0,87,0.00,BKN,SKC,0.00,WeatherDisplay:10.37,2013-02-25 08:56:00,
2013-02-25 10:01:00,45.3,41.7,30.06,East,90,1.6,1.6,87,0.00,BKN,SKC,0.00,WeatherDisplay:10.37,2013-02-25 09:01:00,
2013-02-25 10:06:00,45.9,42.2,30.06,SE,135,0.0,0.0,87,0.00,BKN,SKC,0.00,WeatherDisplay:10.37,2013-02-25 09:06:00,
2013-02-25 10:11:00,46.0,42.4,30.06,East,90,0.0,0.0,87,0.00,BKN,SKC,0.00,WeatherDisplay:10.37,2013-02-25 09:11:00,
2013-02-25 10:16:00,46.0,42.1,30.07,East,100,0.0,0.0,86,0.00,BKN,SKC,0.00,WeatherDisplay:10.37,2013-02-25 09:16:00,
2013-02-25 10:21:00,46.0,42.1,30.07,ESE,113,0.0,0.0,86,0.00,BKN,SKC,0.00,WeatherDisplay:10.37,2013-02-25 09:21:00,
2013-02-25 10:26:00,46.2,42.3,30.07,ESE,103,1.0,1.0,86,0.00,BKN,SKC,0.00,WeatherDisplay:10.37,2013-02-25 09:26:00,
2013-02-25 10:31:00,46.2,42.3,30.08,ESE,112,0.9,1.1,86,0.00,BKN,SKC,0.00,WeatherDisplay:10.37,2013-02-25 09:31:00,
2013-02-25 10:36:00,46.0,42.1,30.08,ESE,112,0.1,1.6,86,0.00,BKN,SKC,0.00,WeatherDisplay:10.37,2013-02-25 09:36:00,
2013-02-25 10:41:00,46.2,42.2,30.08,ESE,113,1.0,2.0,86,0.00,BKN,SKC,0.00,WeatherDisplay:10.37,2013-02-25 09:41:00,
2013-02-25 10:46:00,46.3,42.3,30.08,ESE,114,0.0,1.0,86,0.00,BKN,SKC,0.00,WeatherDisplay:10.37,2013-02-25 09:46:00,
2013-02-25 10:51:00,46.6,42.6,30.08,East,101,0.0,0.0,86,0.00,BKN,SKC,0.00,WeatherDisplay:10.37,2013-02-25 09:51:00,
2013-02-25 10:56:00,46.8,42.8,30.08,ESE,102,0.0,1.0,86,0.00,BKN,SKC,0.00,WeatherDisplay:10.37,2013-02-25 09:56:00,
2013-02-25 11:01:00,47.1,42.8,30.08,East,90,0.0,0.0,85,0.00,BKN,SKC,0.00,WeatherDisplay:10.37,2013-02-25 10:01:00,
2013-02-25 11:06:00,47.3,43.0,30.08,ESE,112,0.4,2.3,85,0.00,BKN,SKC,0.00,WeatherDisplay:10.37,2013-02-25 10:06:00,
2013-02-25 11:11:00,47.3,43.0,30.08,East,94,0.0,0.0,85,0.00,BKN,SKC,0.00,WeatherDisplay:10.37,2013-02-25 10:11:00,
2013-02-25 11:16:00,47.5,43.2,30.08,East,83,1.0,1.0,85,0.00,BKN,SKC,0.00,WeatherDisplay:10.37,2013-02-25 10:16:00,
2013-02-25 11:21:00,47.5,43.2,30.09,East,85,1.0,3.0,85,0.00,BKN,SKC,0.00,WeatherDisplay:10.37,2013-02-25 10:21:00,
2013-02-25 11:26:00,47.6,43.0,30.09,East,92,1.0,3.0,84,0.00,BKN,SKC,0.00,WeatherDisplay:10.37,2013-02-25 10:26:00,
2013-02-25 11:31:00,47.8,43.2,30.08,East,95,2.0,2.0,84,0.00,BKN,SKC,0.00,WeatherDisplay:10.37,2013-02-25 10:31:00,
2013-02-25 11:36:00,48.0,43.4,30.08,ESE,122,1.0,1.0,84,0.00,BKN,SKC,0.00,WeatherDisplay:10.37,2013-02-25 10:36:00,
2013-02-25 11:41:00,48.1,43.5,30.08,SE,142,0.0,4.0,84,0.00,BKN,SKC,0.00,WeatherDisplay:10.37,2013-02-25 10:41:00,
2013-02-25 11:46:00,48.0,43.4,30.08,ESE,112,1.0,1.0,84,0.00,BKN,SKC,0.00,WeatherDisplay:10.37,2013-02-25 10:46:00,
2013-02-25 11:51:00,48.1,43.5,30.09,ESE,118,1.0,1.0,84,0.00,BKN,SKC,0.00,WeatherDisplay:10.37,2013-02-25 10:51:00,
2013-02-25 11:56:00,48.4,43.8,30.08,SE,131,5.0,5.0,84,0.00,RA,SKC,0.02,WeatherDisplay:10.37,2013-02-25 10:56:00,
2013-02-25 12:01:00,48.2,43.3,30.08,ENE,68,0.8,2.3,83,0.02,RA,SKC,0.02,WeatherDisplay:10.37,2013-02-25 11:01:00,
2013-02-25 12:06:00,48.4,43.5,30.09,SE,135,0.0,0.0,83,0.02,BKN,SKC,0.02,WeatherDisplay:10.37,2013-02-25 11:06:00,
2013-02-25 12:11:00,48.0,43.1,30.09,ENE,68,1.3,1.3,83,0.02,BKN,SKC,0.02,WeatherDisplay:10.37,2013-02-25 11:11:00,
2013-02-25 12:16:00,48.0,43.1,30.09,East,90,0.7,1.1,83,0.02,BKN,SKC,0.02,WeatherDisplay:10.37,2013-02-25 11:16:00,
2013-02-25 12:21:00,48.0,43.1,30.09,ESE,112,0.9,1.1,83,0.02,BKN,SKC,0.02,WeatherDisplay:10.37,2013-02-25 11:21:00,
2013-02-25 12:26:00,48.2,43.3,30.09,South,180,0.2,2.3,83,0.02,BKN,SKC,0.02,WeatherDisplay:10.37,2013-02-25 11:26:00,
2013-02-25 12:31:00,48.0,43.1,30.09,SSE,158,0.0,0.0,83,0.02,BKN,SKC,0.02,WeatherDisplay:10.37,2013-02-25 11:31:00,
2013-02-25 12:36:00,48.0,43.1,30.09,ESE,112,0.0,0.0,83,0.02,BKN,SKC,0.02,WeatherDisplay:10.37,2013-02-25 11:36:00,
2013-02-25 12:41:00,48.0,43.1,30.09,East,90,0.0,0.0,83,0.02,BKN,SKC,0.02,WeatherDisplay:10.37,2013-02-25 11:41:00,
2013-02-25 12:46:00,48.0,43.1,30.09,ESE,112,0.0,0.0,83,0.02,BKN,SKC,0.02,WeatherDisplay:10.37,2013-02-25 11:46:00,
2013-02-25 12:51:00,48.2,43.6,30.09,SE,135,0.0,0.0,84,0.02,BKN,SKC,0.02,WeatherDisplay:10.37,2013-02-25 11:51:00,
2013-02-25 12:56:00,48.2,43.3,30.10,ESE,112,0.5,1.1,83,0.00,BKN,SKC,0.02,WeatherDisplay:10.37,2013-02-25 11:56:00,
2013-02-25 13:01:00,48.3,43.4,30.10,SE,134,0.0,1.0,83,0.00,BKN,SKC,0.02,WeatherDisplay:10.37,2013-02-25 12:01:00,
2013-02-25 13:06:00,48.4,43.5,30.10,ESE,112,0.0,0.0,83,0.00,BKN,SKC,0.02,WeatherDisplay:10.37,2013-02-25 12:06:00,
2013-02-25 13:11:00,48.4,43.5,30.10,East,90,0.0,0.0,83,0.00,BKN,SKC,0.02,WeatherDisplay:10.37,2013-02-25 12:11:00,
2013-02-25 13:16:00,48.4,43.5,30.10,East,90,0.0,0.0,83,0.00,BKN,SKC,0.02,WeatherDisplay:10.37,2013-02-25 12:16:00,
2013-02-25 13:21:00,48.4,43.5,30.10,East,90,0.0,0.0,83,0.00,BKN,SKC,0.02,WeatherDisplay:10.37,2013-02-25 12:21:00,
2013-02-25 13:26:00,48.4,43.5,30.10,SSE,158,0.0,0.0,83,0.00,BKN,SKC,0.02,WeatherDisplay:10.37,2013-02-25 12:26:00,
2013-02-25 13:31:00,48.6,43.3,30.10,SSE,158,1.1,2.3,82,0.00,BKN,SKC,0.02,WeatherDisplay:10.37,2013-02-25 12:31:00,
2013-02-25 13:36:00,48.6,43.0,30.10,ENE,68,0.9,1.1,81,0.00,BKN,SKC,0.02,WeatherDisplay:10.37,2013-02-25 12:36:00,
2013-02-25 13:41:00,48.7,43.5,30.09,East,90,0.0,0.0,82,0.00,BKN,SKC,0.02,WeatherDisplay:10.37,2013-02-25 12:41:00,
2013-02-25 13:46:00,48.7,43.5,30.09,NE,45,0.0,0.0,82,0.00,BKN,SKC,0.02,WeatherDisplay:10.37,2013-02-25 12:46:00,
2013-02-25 13:51:00,48.6,43.3,30.10,ENE,68,0.0,0.0,82,0.00,BKN,SKC,0.02,WeatherDisplay:10.37,2013-02-25 12:51:00,
2013-02-25 13:56:00,48.4,42.8,30.10,East,90,1.3,2.3,81,0.00,BKN,SKC,0.02,WeatherDisplay:10.37,2013-02-25 12:56:00,
2013-02-25 14:01:00,48.4,42.8,30.09,East,90,2.2,2.3,81,0.00,BKN,SKC,0.02,WeatherDisplay:10.37,2013-02-25 13:01:00,
2013-02-25 14:06:00,48.6,43.0,30.10,SE,135,0.1,1.1,81,0.00,BKN,SKC,0.02,WeatherDisplay:10.37,2013-02-25 13:06:00,
2013-02-25 14:11:00,48.4,42.8,30.10,East,90,0.0,0.0,81,0.00,BKN,SKC,0.02,WeatherDisplay:10.37,2013-02-25 13:11:00,
2013-02-25 14:17:00,48.4,42.8,30.09,SE,135,0.0,0.0,81,0.00,BKN,SKC,0.02,WeatherDisplay:10.37,2013-02-25 13:17:00,
2013-02-25 14:22:00,48.4,42.8,30.09,SE,135,1.1,1.1,81,0.00,BKN,SKC,0.02,WeatherDisplay:10.37,2013-02-25 13:22:00,
2013-02-25 14:27:00,48.4,42.8,30.10,ESE,117,2.0,2.0,81,0.00,BKN,SKC,0.02,WeatherDisplay:10.37,2013-02-25 13:27:00,
2013-02-25 14:32:00,48.4,43.1,30.10,ESE,107,0.0,0.0,82,0.00,BKN,SKC,0.02,WeatherDisplay:10.37,2013-02-25 13:32:00,
2013-02-25 14:37:00,48.4,43.1,30.09,ESE,109,0.0,0.0,82,0.00,BKN,SKC,0.02,WeatherDisplay:10.37,2013-02-25 13:37:00,
2013-02-25 14:42:00,48.4,43.1,30.10,ESE,112,2.0,2.3,82,0.00,BKN,SKC,0.02,WeatherDisplay:10.37,2013-02-25 13:42:00,
2013-02-25 14:47:00,48.6,43.3,30.10,SE,135,0.0,0.0,82,0.00,BKN,SKC,0.02,WeatherDisplay:10.37,2013-02-25 13:47:00,
2013-02-25 14:52:00,48.6,43.3,30.10,East,90,0.0,0.0,82,0.00,BKN,SKC,0.02,WeatherDisplay:10.37,2013-02-25 13:52:00,
2013-02-25 14:57:00,48.6,43.3,30.10,South,180,0.0,0.0,82,0.00,BKN,SKC,0.02,WeatherDisplay:10.37,2013-02-25 13:57:00,
2013-02-25 15:02:00,48.7,43.5,30.10,SSE,158,0.0,0.0,82,0.00,BKN,SKC,0.02,WeatherDisplay:10.37,2013-02-25 14:02:00,
2013-02-25 15:07:00,48.7,43.5,30.10,ESE,112,0.0,0.0,82,0.00,BKN,SKC,0.02,WeatherDisplay:10.37,2013-02-25 14:07:00,
2013-02-25 15:12:00,48.7,43.5,30.10,ESE,112,0.0,0.0,82,0.00,BKN,SKC,0.02,WeatherDisplay:10.37,2013-02-25 14:12:00,
2013-02-25 15:17:00,48.7,43.2,30.09,ESE,112,0.0,0.0,81,0.00,BKN,SKC,0.02,WeatherDisplay:10.37,2013-02-25 14:17:00,
2013-02-25 15:22:00,48.9,43.3,30.09,ESE,112,0.0,0.0,81,0.00,BKN,SKC,0.02,WeatherDisplay:10.37,2013-02-25 14:22:00,
2013-02-25 15:27:00,48.9,43.3,30.09,SSW,202,0.0,0.0,81,0.00,BKN,SKC,0.02,WeatherDisplay:10.37,2013-02-25 14:27:00,
2013-02-25 15:32:00,48.9,43.3,30.09,SSW,202,0.0,0.0,81,0.00,BKN,SKC,0.02,WeatherDisplay:10.37,2013-02-25 14:32:00,
2013-02-25 15:37:00,48.9,43.3,30.09,SSW,202,0.0,0.0,81,0.00,BKN,SKC,0.02,WeatherDisplay:10.37,2013-02-25 14:37:00,
2013-02-25 15:42:00,48.9,43.3,30.10,SSW,204,0.0,0.0,81,0.00,BKN,SKC,0.02,WeatherDisplay:10.37,2013-02-25 14:42:00,
2013-02-25 15:47:00,48.9,43.3,30.10,SSW,204,0.0,0.0,81,0.00,BKN,SKC,0.02,WeatherDisplay:10.37,2013-02-25 14:47:00,
2013-02-25 15:52:00,49.1,43.5,30.10,NNW,338,0.0,0.0,81,0.00,BKN,SKC,0.02,WeatherDisplay:10.37,2013-02-25 14:52:00,
2013-02-25 15:57:00,48.9,43.3,30.10,NE,45,0.8,1.1,81,0.00,BKN,SKC,0.02,WeatherDisplay:10.37,2013-02-25 14:57:00,
2013-02-25 16:02:00,48.7,43.2,30.10,NNE,22,0.0,0.0,81,0.00,BKN,SKC,0.02,WeatherDisplay:10.37,2013-02-25 15:02:00,
2013-02-25 16:07:00,48.7,43.2,30.10,NNE,22,0.0,0.0,81,0.00,BKN,SKC,0.02,WeatherDisplay:10.37,2013-02-25 15:07:00,
2013-02-25 16:12:00,48.6,43.3,30.10,NNE,22,0.0,0.0,82,0.00,BKN,SKC,0.02,WeatherDisplay:10.37,2013-02-25 15:12:00,
2013-02-25 16:17:00,48.4,43.1,30.10,North,0,0.0,0.0,82,0.00,BKN,SKC,0.02,WeatherDisplay:10.37,2013-02-25 15:17:00,
2013-02-25 16:22:00,48.2,43.0,30.10,NW,315,0.0,0.0,82,0.00,BKN,SKC,0.02,WeatherDisplay:10.37,2013-02-25 15:22:00,
2013-02-25 16:27:00,48.2,43.3,30.10,NW,315,0.0,0.0,83,0.00,BKN,SKC,0.02,WeatherDisplay:10.37,2013-02-25 15:27:00,
2013-02-25 16:32:00,48.2,43.3,30.11,NNW,338,0.0,0.0,83,0.00,BKN,SKC,0.02,WeatherDisplay:10.37,2013-02-25 15:32:00,
2013-02-25 16:37:00,48.2,43.6,30.11,NW,315,0.0,0.0,84,0.00,BKN,SKC,0.02,WeatherDisplay:10.37,2013-02-25 15:37:00,
2013-02-25 16:42:00,48.0,43.4,30.10,NNW,338,0.0,0.0,84,0.00,BKN,SKC,0.02,WeatherDisplay:10.37,2013-02-25 15:42:00,
2013-02-25 16:47:00,48.0,43.4,30.11,NNW,338,0.0,0.0,84,0.00,BKN,SKC,0.02,WeatherDisplay:10.37,2013-02-25 15:47:00,
2013-02-25 16:52:00,48.0,43.7,30.11,WNW,292,0.0,0.0,85,0.00,BKN,SKC,0.02,WeatherDisplay:10.37,2013-02-25 15:52:00,
2013-02-25 16:57:00,48.0,43.7,30.11,NNW,338,0.0,0.0,85,0.00,BKN,SKC,0.02,WeatherDisplay:10.37,2013-02-25 15:57:00,
2013-02-25 17:02:00,48.0,43.7,30.11,WNW,292,0.0,0.0,85,0.00,BKN,SKC,0.02,WeatherDisplay:10.37,2013-02-25 16:02:00,
2013-02-25 17:07:00,47.8,43.5,30.11,WNW,292,0.0,0.0,85,0.00,BKN,SKC,0.02,WeatherDisplay:10.37,2013-02-25 16:07:00,
2013-02-25 17:12:00,48.0,43.7,30.11,WNW,292,0.0,0.0,85,0.00,BKN,SKC,0.02,WeatherDisplay:10.37,2013-02-25 16:12:00,
2013-02-25 17:17:00,47.8,43.9,30.11,NW,315,0.0,0.0,86,0.00,BKN,SKC,0.02,WeatherDisplay:10.37,2013-02-25 16:17:00,
2013-02-25 17:22:00,47.8,43.9,30.11,NW,315,0.0,0.0,86,0.00,BKN,SKC,0.02,WeatherDisplay:10.37,2013-02-25 16:22:00,
2013-02-25 17:27:00,47.5,43.5,30.11,NW,315,0.0,0.0,86,0.00,BKN,SKC,0.02,WeatherDisplay:10.37,2013-02-25 16:27:00,
2013-02-25 17:32:00,47.5,43.5,30.11,North,0,0.0,0.0,86,0.00,BKN,SKC,0.02,WeatherDisplay:10.37,2013-02-25 16:32:00,
2013-02-25 17:37:00,47.5,43.5,30.11,WNW,292,0.0,0.0,86,0.00,BKN,SKC,0.02,WeatherDisplay:10.37,2013-02-25 16:37:00,
2013-02-25 17:42:00,47.5,43.5,30.11,NW,315,0.0,0.0,86,0.00,BKN,SKC,0.02,WeatherDisplay:10.37,2013-02-25 16:42:00,
2013-02-25 17:47:00,47.5,43.5,30.12,WNW,292,0.0,0.0,86,0.00,BKN,SKC,0.02,WeatherDisplay:10.37,2013-02-25 16:47:00,
2013-02-25 17:52:00,47.5,43.5,30.12,WNW,292,0.0,0.0,86,0.00,BKN,SKC,0.02,WeatherDisplay:10.37,2013-02-25 16:52:00,
2013-02-25 17:57:00,47.5,43.5,30.12,WNW,292,0.0,0.0,86,0.00,BKN,SKC,0.02,WeatherDisplay:10.37,2013-02-25 16:57:00,
2013-02-25 18:02:00,47.5,43.5,30.12,WNW,292,0.0,0.0,86,0.00,BKN,SKC,0.02,WeatherDisplay:10.37,2013-02-25 17:02:00,
2013-02-25 18:07:00,47.5,43.5,30.13,WNW,292,1.5,2.3,86,0.00,BKN,SKC,0.02,WeatherDisplay:10.37,2013-02-25 17:07:00,
2013-02-25 18:12:00,47.5,43.8,30.13,NW,315,0.0,0.0,87,0.00,BKN,SKC,0.02,WeatherDisplay:10.37,2013-02-25 17:12:00,
2013-02-25 18:17:00,47.5,43.5,30.13,NNW,338,0.0,0.0,86,0.00,BKN,SKC,0.02,WeatherDisplay:10.37,2013-02-25 17:17:00,
2013-02-25 18:22:00,47.5,43.5,30.13,NNW,338,0.0,0.0,86,0.00,BKN,SKC,0.02,WeatherDisplay:10.37,2013-02-25 17:22:00,
2013-02-25 18:27:00,47.3,43.6,30.13,WNW,292,0.0,0.0,87,0.00,BKN,SKC,0.02,WeatherDisplay:10.37,2013-02-25 17:27:00,
2013-02-25 18:32:00,47.3,43.6,30.13,WNW,292,0.0,0.0,87,0.00,BKN,SKC,0.02,WeatherDisplay:10.37,2013-02-25 17:32:00,
2013-02-25 18:38:00,47.3,43.6,30.13,NW,315,0.0,0.0,87,0.00,BKN,SKC,0.02,WeatherDisplay:10.37,2013-02-25 17:38:00,
2013-02-25 18:43:00,47.1,43.4,30.13,WNW,292,0.0,0.0,87,0.00,BKN,SKC,0.02,WeatherDisplay:10.37,2013-02-25 17:43:00,
2013-02-25 18:48:00,47.1,43.4,30.13,NNW,338,0.0,0.0,87,0.00,BKN,SKC,0.02,WeatherDisplay:10.37,2013-02-25 17:48:00,
2013-02-25 18:53:00,47.1,43.4,30.13,WNW,292,0.0,0.0,87,0.00,BKN,SKC,0.02,WeatherDisplay:10.37,2013-02-25 17:53:00,
2013-02-25 18:58:00,47.1,43.7,30.13,WNW,292,0.0,0.0,88,0.00,BKN,SKC,0.02,WeatherDisplay:10.37,2013-02-25 17:58:00,
2013-02-25 19:03:00,47.3,43.9,30.13,WNW,292,0.0,0.0,88,0.00,BKN,SKC,0.02,WeatherDisplay:10.37,2013-02-25 18:03:00,
2013-02-25 19:08:00,47.5,44.1,30.13,WNW,292,0.0,0.0,88,0.00,BKN,SKC,0.02,WeatherDisplay:10.37,2013-02-25 18:08:00,
2013-02-25 19:13:00,47.3,43.9,30.13,NW,315,0.0,0.0,88,0.00,BKN,SKC,0.02,WeatherDisplay:10.37,2013-02-25 18:13:00,
2013-02-25 19:18:00,47.5,44.1,30.13,WNW,292,0.0,0.0,88,0.00,BKN,SKC,0.02,WeatherDisplay:10.37,2013-02-25 18:18:00,
2013-02-25 19:23:00,47.7,44.3,30.13,NNW,338,0.0,1.1,88,0.00,BKN,SKC,0.02,WeatherDisplay:10.37,2013-02-25 18:23:00,
2013-02-25 19:28:00,47.7,44.0,30.12,NNE,22,0.7,3.1,87,0.00,BKN,SKC,0.02,WeatherDisplay:10.37,2013-02-25 18:28:00,
2013-02-25 19:33:00,47.7,44.0,30.12,North,0,0.0,0.0,87,0.00,BKN,SKC,0.02,WeatherDisplay:10.37,2013-02-25 18:33:00,
2013-02-25 19:38:00,47.8,44.2,30.12,WNW,292,0.6,0.0,87,0.00,BKN,SKC,0.02,WeatherDisplay:10.37,2013-02-25 18:38:00,
2013-02-25 19:43:00,47.7,44.0,30.13,NW,315,0.9,1.1,87,0.00,BKN,SKC,0.02,WeatherDisplay:10.37,2013-02-25 18:43:00,
2013-02-25 19:48:00,47.5,43.8,30.13,NNW,338,1.6,1.6,87,0.00,BKN,SKC,0.02,WeatherDisplay:10.37,2013-02-25 18:48:00,
2013-02-25 19:53:00,47.5,43.8,30.13,NNW,338,0.9,1.1,87,0.00,BKN,SKC,0.02,WeatherDisplay:10.37,2013-02-25 18:53:00,
2013-02-25 19:58:00,47.5,43.8,30.13,NW,315,0.0,0.0,87,0.00,BKN,SKC,0.02,WeatherDisplay:10.37,2013-02-25 18:58:00,
2013-02-25 20:03:00,47.5,43.8,30.13,NNW,338,0.0,0.0,87,0.00,BKN,SKC,0.02,WeatherDisplay:10.37,2013-02-25 19:03:00,
2013-02-25 20:08:00,47.5,43.8,30.13,NNW,338,0.0,0.0,87,0.00,BKN,SKC,0.02,WeatherDisplay:10.37,2013-02-25 19:08:00,
2013-02-25 20:13:00,47.1,43.4,30.13,NNW,338,0.0,0.0,87,0.00,BKN,SKC,0.02,WeatherDisplay:10.37,2013-02-25 19:13:00,
2013-02-25 20:18:00,47.1,43.4,30.12,NW,315,3.8,3.8,87,0.00,BKN,SKC,0.02,WeatherDisplay:10.37,2013-02-25 19:18:00,
2013-02-25 20:23:00,46.9,43.3,30.12,NW,315,0.7,3.5,87,0.00,BKN,SKC,0.02,WeatherDisplay:10.37,2013-02-25 19:23:00,
2013-02-25 20:28:00,46.9,43.3,30.12,NW,315,2.6,4.6,87,0.00,BKN,SKC,0.02,WeatherDisplay:10.37,2013-02-25 19:28:00,
2013-02-25 20:33:00,46.9,43.3,30.12,NW,315,1.3,3.5,87,0.00,BKN,SKC,0.02,WeatherDisplay:10.37,2013-02-25 19:33:00,
2013-02-25 20:38:00,46.8,43.1,30.13,North,0,2.0,2.3,87,0.00,BKN,SKC,0.02,WeatherDisplay:10.37,2013-02-25 19:38:00,
2013-02-25 20:43:00,46.8,43.1,30.12,NNW,338,4.0,4.0,87,0.00,BKN,SKC,0.02,WeatherDisplay:10.37,2013-02-25 19:43:00,
2013-02-25 20:48:00,46.6,42.9,30.12,WNW,292,2.5,2.5,87,0.00,BKN,SKC,0.02,WeatherDisplay:10.37,2013-02-25 19:48:00,
2013-02-25 20:53:00,46.6,42.9,30.12,NW,315,2.7,3.5,87,0.00,BKN,SKC,0.02,WeatherDisplay:10.37,2013-02-25 19:53:00,
2013-02-25 20:58:00,46.2,42.9,30.12,North,0,0.9,2.3,88,0.00,BKN,SKC,0.02,WeatherDisplay:10.37,2013-02-25 19:58:00,
2013-02-25 21:03:00,46.2,42.9,30.12,WNW,292,3.1,3.5,88,0.00,SCT,SKC,0.02,WeatherDisplay:10.37,2013-02-25 20:03:00,
2013-02-25 21:08:00,46.2,42.9,30.12,NW,315,2.0,2.3,88,0.00,SCT,SKC,0.02,WeatherDisplay:10.37,2013-02-25 20:08:00,
2013-02-25 21:13:00,45.7,42.3,30.12,NNW,338,0.7,1.1,88,0.00,SCT,SKC,0.02,WeatherDisplay:10.37,2013-02-25 20:13:00,
2013-02-25 21:18:00,45.7,42.3,30.12,WNW,292,2.9,3.5,88,0.00,SCT,SKC,0.02,WeatherDisplay:10.37,2013-02-25 20:18:00,
2013-02-25 21:23:00,45.7,42.3,30.12,WNW,292,2.9,3.5,88,0.00,SCT,SKC,0.02,WeatherDisplay:10.37,2013-02-25 20:23:00,
2013-02-25 21:28:00,45.7,42.3,30.12,NNW,338,0.0,0.0,88,0.00,SCT,SKC,0.02,WeatherDisplay:10.37,2013-02-25 20:28:00,
2013-02-25 21:33:00,45.3,42.0,30.12,NNW,338,0.9,1.1,88,0.00,SCT,SKC,0.02,WeatherDisplay:10.37,2013-02-25 20:33:00,
2013-02-25 21:38:00,45.3,42.0,30.12,NNW,338,1.0,1.0,88,0.00,SCT,SKC,0.02,WeatherDisplay:10.37,2013-02-25 20:38:00,
2013-02-25 21:43:00,45.3,42.0,30.12,NNW,338,1.0,1.0,88,0.00,SCT,SKC,0.02,WeatherDisplay:10.37,2013-02-25 20:43:00,
2013-02-25 21:48:00,45.3,42.0,30.12,NNW,339,1.0,1.0,88,0.00,SCT,SKC,0.02,WeatherDisplay:10.37,2013-02-25 20:48:00,
2013-02-25 21:53:00,45.1,42.1,30.12,NW,315,2.2,2.3,89,0.00,SCT,SKC,0.02,WeatherDisplay:10.37,2013-02-25 20:53:00,
2013-02-25 21:58:00,45.3,42.3,30.12,WNW,292,2.1,2.3,89,0.00,SCT,SKC,0.02,WeatherDisplay:10.37,2013-02-25 20:58:00,
2013-02-25 22:03:00,45.3,42.3,30.12,NW,315,0.0,0.0,89,0.00,SCT,SKC,0.02,WeatherDisplay:10.37,2013-02-25 21:03:00,
2013-02-25 22:08:00,45.7,42.6,30.12,NW,315,1.7,2.0,89,0.00,SCT,SKC,0.02,WeatherDisplay:10.37,2013-02-25 21:08:00,
2013-02-25 22:13:00,46.0,42.7,30.11,NW,315,1.3,2.3,88,0.00,SCT,SKC,0.02,WeatherDisplay:10.37,2013-02-25 21:13:00,
2013-02-25 22:18:00,46.0,42.7,30.11,West,270,0.7,1.1,88,0.00,BKN,SKC,0.02,WeatherDisplay:10.37,2013-02-25 21:18:00,
2013-02-25 22:23:00,46.0,42.7,30.11,NNW,338,0.5,2.3,88,0.00,BKN,SKC,0.02,WeatherDisplay:10.37,2013-02-25 21:23:00,
2013-02-25 22:28:00,45.7,42.3,30.11,NNW,338,0.8,1.1,88,0.00,BKN,SKC,0.02,WeatherDisplay:10.37,2013-02-25 21:28:00,
2013-02-25 22:33:00,45.3,42.0,30.11,WNW,292,0.0,1.1,88,0.00,BKN,SKC,0.02,WeatherDisplay:10.37,2013-02-25 21:33:00,
2013-02-25 22:38:00,45.3,42.0,30.11,North,0,0.0,0.0,88,0.00,BKN,SKC,0.02,WeatherDisplay:10.37,2013-02-25 21:38:00,
2013-02-25 22:43:00,44.8,41.4,30.11,North,0,0.0,0.0,88,0.00,BKN,SKC,0.02,WeatherDisplay:10.37,2013-02-25 21:43:00,
2013-02-25 22:48:00,44.8,41.4,30.11,NNW,347,0.0,0.0,88,0.00,BKN,SKC,0.02,WeatherDisplay:10.37,2013-02-25 21:48:00,
2013-02-25 22:53:00,44.8,41.4,30.11,NNW,338,0.0,0.0,88,0.00,BKN,SKC,0.02,WeatherDisplay:10.37,2013-02-25 21:53:00,
2013-02-25 22:58:00,44.8,41.4,30.11,NNW,339,0.0,0.0,88,0.00,BKN,SKC,0.02,WeatherDisplay:10.37,2013-02-25 21:58:00,
2013-02-25 23:03:00,44.8,41.4,30.11,NNW,339,0.0,0.0,88,0.00,BKN,SKC,0.02,WeatherDisplay:10.37,2013-02-25 22:03:00,
2013-02-25 23:08:00,45.1,42.1,30.11,WNW,292,0.6,1.1,89,0.00,BKN,SKC,0.02,WeatherDisplay:10.37,2013-02-25 22:08:00,
2013-02-25 23:13:00,45.7,42.3,30.11,NNW,332,0.0,0.0,88,0.00,BKN,SKC,0.02,WeatherDisplay:10.37,2013-02-25 22:13:00,
2013-02-25 23:18:00,45.7,42.3,30.11,NNW,338,1.8,2.3,88,0.00,-RA,SKC,0.02,WeatherDisplay:10.37,2013-02-25 22:18:00,
2013-02-25 23:23:00,46.0,42.7,30.11,NNW,347,1.0,2.0,88,0.00,-RA,SKC,0.02,WeatherDisplay:10.37,2013-02-25 22:23:00,
2013-02-25 23:28:00,46.0,42.7,30.10,NNE,22,1.6,4.9,88,0.00,-RA,SKC,0.02,WeatherDisplay:10.37,2013-02-25 22:28:00,
2013-02-25 23:33:00,46.2,42.9,30.11,NNW,338,0.9,4.6,88,0.00,-RA,SKC,0.02,WeatherDisplay:10.37,2013-02-25 22:33:00,
2013-02-25 23:38:00,46.2,42.9,30.11,North,359,1.0,0.0,88,0.00,-RA,SKC,0.02,WeatherDisplay:10.37,2013-02-25 22:38:00,
2013-02-25 23:43:00,46.2,42.9,30.11,West,270,0.0,0.0,88,0.00,-RA,SKC,0.02,WeatherDisplay:10.37,2013-02-25 22:43:00,
2013-02-25 23:48:00,46.0,42.4,30.10,WNW,294,1.0,1.0,87,0.00,-RA,SKC,0.02,WeatherDisplay:10.37,2013-02-25 22:48:00,
2013-02-25 23:53:00,46.0,42.7,30.10,WNW,292,0.0,1.1,88,0.00,-RA,SKC,0.02,WeatherDisplay:10.37,2013-02-25 22:53:00,
2013-02-25 23:58:00,46.0,42.7,30.10,West,270,0.9,1.1,88,0.00,-RA,SKC,0.02,WeatherDisplay:10.37,2013-02-25 22:58:00,